ORBCOMM FM33 [P]

Last updated on July 6, 2021, 3:36 p.m. UTC

1 25983U 99065D   21186.74400936  .00000020  00000-0  55873-4 0  9991
2 25983  45.0316 342.1740 0008180  43.6050 330.8386 14.35285411128606
UTC
Height (km)
Latitude
Longitude
Inclination
Orbital Period
UTC large
Height (km)
Speed (km/s)
/
Latitude / Longitude
Inclination (degrees)
Orbital Period (minutes)
Azimuth
Elevation
Range (km)
Doppler Factor
iOS Compass Heading
iOS Angle